Terminal Aerodrome Forecast
Issued by NWS

Home | Current Version | Previous Version | Text Only | Print | Product List | Glossary On
Versions: 1 2 3 4 5 6 7 8 9 10 11 12 13 14 15 16 17
000
FTUS43 KAPX 221127
TAFMBL
TAF
KMBL 221127Z 2212/2312 22009G18KT 5SM -FZRA OVC015 WS012/22040KT
     FM221300 22010G18KT P6SM OVC012 WS012/23032KT
     FM230100 21005KT 5SM -DZ BR OVC005
      AMD LTD TO CLD VIS AND WIND=

USA.gov is the U.S. government's official web portal to all federal, state and local government web resources and services.